Location: Skalnate Pleso
(49.1889°N, 20.2450°E)
Time: 06:36:18
(UTC+02:00)

COSMOS 2428 - Pass Details

Date: 24 February 2020
Orbit: 846 x 856 km, 70.9° (Epoch: 04 April)

Event Time Altitude Azimuth Distance (km) Brightness Sun altitude
Exits shadow 04:04:44 11° 331° (NNW) 2,396 4.9 -24.8°
Maximum altitude 04:05:11 12° 336° (NNW) 2,389 4.9 -24.7°
Drops below altitude 10° 04:07:05 10° 356° (N) 2,501 5.2 -24.4°
Sets 04:11:36 0° 28° (NNE) 3,439 6.5 -23.7°
